• In Portugal
  • List of Countries
  • For 7 days
  • Water Temperature
  • Satellite Maps
  • Weather Map
  • Weather Widgets
  • user-avatar
    Login

    Hourly Weather Mariental

    Today, 23 October, Monday

    Time Temperature Precipitation Wind Pressure Humidity
    00:00 +28°C° 0 mm 3 mps 669 mmHg 16%
    01:00 +27°C° 0 mm 2 mps 668 mmHg 18%
    02:00 +26°C° 0 mm 2 mps 668 mmHg 19%
    03:00 +25°C° 0 mm 2 mps 668 mmHg 19%
    04:00 +24°C° 0 mm 2 mps 668 mmHg 20%
    05:00 +25°C° 0 mm 1 mps 668 mmHg 18%
    06:00 +26°C° 0 mm 1 mps 669 mmHg 17%
    07:00 +27°C° 0 mm 1 mps 669 mmHg 15%
    08:00 +29°C° 0 mm 2 mps 669 mmHg 15%
    09:00 +31°C° 0 mm 2 mps 669 mmHg 16%
    10:00 +32°C° 0 mm 2 mps 669 mmHg 16%
    11:00 +35°C° 0 mm 3 mps 669 mmHg 13%
    12:00 +36°C° 0 mm 4 mps 669 mmHg 11%
    13:00 +39°C° 0 mm 5 mps 668 mmHg 8%
    14:00 +39°C° 0 mm 5 mps 668 mmHg 7%
    15:00 +39°C° 0 mm 6 mps 668 mmHg 6%
    16:00 +40°C° 0 mm 6 mps 668 mmHg 5%
    17:00 +38°C° 0 mm 6 mps 668 mmHg 4%
    18:00 +35°C° 0 mm 6 mps 668 mmHg 4%
    19:00 +33°C° 0 mm 6 mps 668 mmHg 3%
    20:00 +32°C° 0 mm 6 mps 668 mmHg 4%
    21:00 +29°C° 0 mm 6 mps 668 mmHg 5%
    22:00 +28°C° 0 mm 6 mps 668 mmHg 6%
    23:00 +27°C° 0 mm 5 mps 668 mmHg 12%

    Tomorrow, 24 October, Tuesday

    Time Temperature Precipitation Wind Pressure Humidity
    00:00 +25°C° 0 mm 5 mps 668 mmHg 17%
    01:00 +23°C° 0 mm 4 mps 667 mmHg 22%
    02:00 +22°C° 0 mm 3 mps 667 mmHg 25%
    03:00 +22°C° 0 mm 3 mps 666 mmHg 29%
    04:00 +21°C° 0 mm 2 mps 666 mmHg 32%
    05:00 +22°C° 0 mm 3 mps 666 mmHg 32%
    06:00 +24°C° 0 mm 3 mps 667 mmHg 32%
    07:00 +25°C° 0 mm 3 mps 668 mmHg 31%
    08:00 +27°C° 0 mm 3 mps 668 mmHg 26%
    09:00 +30°C° 0 mm 2 mps 668 mmHg 21%
    10:00 +32°C° 0 mm 2 mps 668 mmHg 16%
    11:00 +35°C° 0 mm 3 mps 668 mmHg 13%
    12:00 +37°C° 0 mm 4 mps 668 mmHg 11%
    13:00 +40°C° 0 mm 5 mps 667 mmHg 8%
    14:00 +40°C° 0 mm 5 mps 667 mmHg 8%
    15:00 +41°C° 0 mm 6 mps 667 mmHg 7%
    16:00 +41°C° 0 mm 6 mps 667 mmHg 7%
    17:00 +39°C° 0 mm 6 mps 667 mmHg 7%
    18:00 +36°C° 0 mm 7 mps 667 mmHg 8%
    19:00 +34°C° 0 mm 7 mps 668 mmHg 9%
    20:00 +33°C° 0 mm 6 mps 668 mmHg 10%
    21:00 +30°C° 0 mm 5 mps 668 mmHg 11%
    22:00 +29°C° 0 mm 4 mps 668 mmHg 11%
    23:00 +27°C° 0 mm 4 mps 668 mmHg 15%

    Day after tomorrow, 25 October, Wednesday

    Time Temperature Precipitation Wind Pressure Humidity
    00:00 +26°C° 0 mm 3 mps 667 mmHg 18%
    01:00 +25°C° 0 mm 3 mps 667 mmHg 21%
    02:00 +24°C° 0 mm 2 mps 667 mmHg 23%
    03:00 +23°C° 0 mm 2 mps 666 mmHg 25%
    04:00 +22°C° 0 mm 1 mps 666 mmHg 27%
    05:00 +24°C° 0 mm 1 mps 667 mmHg 25%
    06:00 +25°C° 0 mm 1 mps 668 mmHg 22%
    07:00 +27°C° 0 mm 1 mps 668 mmHg 20%
    08:00 +29°C° 0 mm 1 mps 668 mmHg 17%
    09:00 +31°C° 0 mm 2 mps 669 mmHg 13%
    10:00 +34°C° 0 mm 2 mps 669 mmHg 10%
    11:00 +35°C° 0 mm 2 mps 668 mmHg 9%
    12:00 +37°C° 0 mm 3 mps 668 mmHg 9%
    13:00 +38°C° 0 mm 4 mps 667 mmHg 8%
    14:00 +40°C° 0 mm 4 mps 667 mmHg 8%
    15:00 +40°C° 0 mm 5 mps 667 mmHg 7%
    16:00 +40°C° 0 mm 6 mps 666 mmHg 7%
    17:00 +38°C° 0 mm 7 mps 666 mmHg 7%
    18:00 +37°C° 0 mm 8 mps 667 mmHg 7%
    19:00 +34°C° 0 mm 9 mps 667 mmHg 7%
    20:00 +32°C° 0 mm 7 mps 667 mmHg 8%
    21:00 +30°C° 0 mm 6 mps 667 mmHg 10%
    22:00 +28°C° 0 mm 5 mps 667 mmHg 11%
    23:00 +27°C° 0 mm 5 mps 667 mmHg 11%

    26 October, Thursday

    Time Temperature Precipitation Wind Pressure Humidity
    00:00 +26°C° 0 mm 5 mps 667 mmHg 12%
    01:00 +25°C° 0 mm 5 mps 666 mmHg 13%
    02:00 +22°C° 0 mm 4 mps 666 mmHg 16%
    03:00 +21°C° 0 mm 3 mps 666 mmHg 19%
    04:00 +20°C° 0 mm 3 mps 666 mmHg 22%
    05:00 +21°C° 0 mm 3 mps 666 mmHg 22%
    06:00 +22°C° 0 mm 4 mps 667 mmHg 21%
    07:00 +22°C° 0 mm 4 mps 667 mmHg 21%
    08:00 +25°C° 0 mm 3 mps 668 mmHg 18%
    09:00 +27°C° 0 mm 3 mps 668 mmHg 15%
    10:00 +29°C° 0 mm 3 mps 668 mmHg 12%
    11:00 +31°C° 0 mm 3 mps 667 mmHg 10%
    12:00 +33°C° 0 mm 3 mps 667 mmHg 9%
    13:00 +35°C° 0 mm 3 mps 666 mmHg 7%
    14:00 +35°C° 0 mm 4 mps 666 mmHg 6%
    15:00 +36°C° 0 mm 4 mps 666 mmHg 5%
    16:00 +37°C° 0 mm 5 mps 666 mmHg 4%
    17:00 +35°C° 0 mm 6 mps 666 mmHg 5%
    18:00 +33°C° 0 mm 6 mps 666 mmHg 5%
    19:00 +30°C° 0 mm 7 mps 666 mmHg 5%
    20:00 +28°C° 0 mm 7 mps 666 mmHg 14%
    21:00 +26°C° 0 mm 8 mps 666 mmHg 23%
    22:00 +23°C° 0 mm 8 mps 666 mmHg 32%
    23:00 +21°C° 0 mm 7 mps 666 mmHg 37%

    27 October, Friday

    Time Temperature Precipitation Wind Pressure Humidity
    00:00 +20°C° 0 mm 7 mps 666 mmHg 43%
    01:00 +17°C° 0 mm 6 mps 665 mmHg 48%
    02:00 +16°C° 0 mm 6 mps 665 mmHg 48%
    03:00 +16°C° 0 mm 6 mps 665 mmHg 48%
    04:00 +15°C° 0 mm 6 mps 665 mmHg 48%
    05:00 +15°C° 0 mm 6 mps 666 mmHg 43%
    06:00 +15°C° 0 mm 6 mps 666 mmHg 39%
    07:00 +15°C° 0 mm 6 mps 667 mmHg 34%
    08:00 +17°C° 0 mm 6 mps 667 mmHg 31%
    09:00 +19°C° 0 mm 5 mps 667 mmHg 28%
    10:00 +21°C° 0 mm 5 mps 668 mmHg 25%
    11:00 +23°C° 0 mm 5 mps 667 mmHg 23%
    12:00 +25°C° 0 mm 5 mps 667 mmHg 21%
    13:00 +27°C° 0 mm 4 mps 667 mmHg 18%
    14:00 +27°C° 0 mm 5 mps 666 mmHg 17%
    15:00 +27°C° 0 mm 5 mps 666 mmHg 15%
    16:00 +28°C° 0 mm 6 mps 666 mmHg 13%
    17:00 +26°C° 0 mm 6 mps 666 mmHg 12%
    18:00 +24°C° 0 mm 6 mps 667 mmHg 11%
    19:00 +22°C° 0 mm 6 mps 667 mmHg 10%
    20:00 +21°C° 0 mm 7 mps 667 mmHg 11%
    21:00 +20°C° 0 mm 8 mps 668 mmHg 13%
    22:00 +18°C° 0 mm 9 mps 668 mmHg 14%
    23:00 +17°C° 0 mm 9 mps 668 mmHg 15%

    28 October, Saturday

    Time Temperature Precipitation Wind Pressure Humidity
    00:00 +15°C° 0 mm 8 mps 668 mmHg 16%
    01:00 +13°C° 0 mm 8 mps 667 mmHg 17%
    02:00 +13°C° 0 mm 8 mps 667 mmHg 19%
    03:00 +12°C° 0 mm 7 mps 668 mmHg 21%
    04:00 +11°C° 0 mm 7 mps 668 mmHg 22%
    05:00 +11°C° 0 mm 7 mps 668 mmHg 23%
    06:00 +12°C° 0 mm 7 mps 669 mmHg 23%
    07:00 +12°C° 0 mm 7 mps 669 mmHg 23%
    08:00 +16°C° 0 mm 7 mps 670 mmHg 20%
    09:00 +18°C° 0 mm 7 mps 670 mmHg 16%
    10:00 +21°C° 0 mm 7 mps 670 mmHg 13%
    11:00 +23°C° 0 mm 6 mps 669 mmHg 11%
    12:00 +24°C° 0 mm 6 mps 669 mmHg 10%
    13:00 +27°C° 0 mm 6 mps 668 mmHg 8%
    14:00 +27°C° 0 mm 6 mps 668 mmHg 8%
    15:00 +28°C° 0 mm 6 mps 668 mmHg 7%
    16:00 +28°C° 0 mm 6 mps 667 mmHg 6%
    17:00 +27°C° 0 mm 6 mps 667 mmHg 7%
    18:00 +25°C° 0 mm 5 mps 667 mmHg 7%
    19:00 +22°C° 0 mm 5 mps 667 mmHg 8%
    20:00 +21°C° 0 mm 6 mps 667 mmHg 8%
    21:00 +20°C° 0 mm 6 mps 667 mmHg 9%
    22:00 +18°C° 0 mm 7 mps 668 mmHg 9%
    23:00 +19°C° 0 mm 6 mps 667 mmHg 10%
    Show more